Regional & State Weather Roundups


433 
ASUS41 KLWX 310610
RWRLWX
REGIONAL WEATHER ROUNDUP
NATIONAL WEATHER SERVICE BALTIMORE MD/WASHINGTON DC
200 AM EDT MON AUG 31 2015
Note: "FAIR" indicates few or no clouds below 12,000 feet
with no significant weather and/or obstructions to visibility.
 TC=TEMPERATURE CELSIUS
 * =Non NWS site. Station does not report precipitation (e.g. rain,
    snow, etc.), thunder, or fog.
DCZ001-MDZ009-015-VAZ040>042-051-053>054-310700-
WASHINGTON METRO
  
CITY           SKY/WX    TMP DP  RH WIND       PRES   REMARKS
WASHINGTON NAT CLOUDY    77  66  68 S7        30.09S                  
DULLES         CLOUDY    74  66  76 S3        30.08F                  
ANDREWS AFB    CLOUDY    76  65  68 SW7       30.08F                  
FT BELVOIR     MOCLDY    72  68  87 CALM      30.08F                  
QUANTICO       CLOUDY    77  65  66 SW7       30.09F                  
COLLEGE PARK*  MOCLDY    79  64  61 CALM      30.08F                  
LEESBURG*      CLOUDY    75  72  88 S5        30.09F                  
MANASSAS*      MOCLDY    73  68  83 CALM      30.08F                  
GAITHERSBURG*  CLOUDY    75  64  69 CALM      30.13S                  
$$
MDZ006>007-011-014-310700-
BALTIMORE METRO
  
CITY           SKY/WX    TMP DP  RH WIND       PRES   REMARKS
BWI AIRPORT    CLOUDY    75  65  70 SW3       30.07S                  
MD SCIENCE CTR   N/A     79  65  62 MISG      30.07F                  
MARTIN STATE   FAIR      77  70  78 S6        30.08F                  
ANNAPOLIS      FAIR      77  63  61 VRB3      30.07F                  
FORT MEADE*    FAIR      70  68  94 CALM      30.10F                  
$$
MDZ012-015-019>023-310700-
MARYLAND EASTERN SHORE
  
CITY           SKY/WX    TMP DP  RH WIND       PRES   REMARKS
OCEAN CITY     FAIR      74  68  81 SW5       30.10F                  
SALISBURY      FAIR      71  67  87 SW5       30.09F                  
BAY BRIDGE AP*   N/A     77  63  61 S5        30.08F                  
CAMBRIDGE*     FAIR      77  68  73 S3        30.08F                  
$$
MDZ017>025-310700-
SOUTHERN MARYLAND
  
CITY           SKY/WX    TMP DP  RH WIND       PRES   REMARKS
PATUXENT RIVER FAIR      75  64  68 SW9       30.08F                  
ST INIGOES     FAIR      75  67  76 S3        30.08F                  
LEONARDTOWN*   FAIR      73  63  68 CALM      30.11F                  
$$
MDZ003>005-310700-
NORTH CENTRAL MARYLAND
  
CITY           SKY/WX    TMP DP  RH WIND       PRES   REMARKS
FREDERICK*     FAIR      73  70  88 S3        30.10F                  
HAGERSTOWN APT MOCLDY    73  67  81 E3        30.08F                  
WESTMINSTER*   FAIR      75  66  73 SW5       30.09S                  
$$
MDZ501>502-310700-
WESTERN MARYLAND
  
CITY           SKY/WX    TMP DP  RH WIND       PRES   REMARKS
OAKLAND*       MOCLDY    64  61  88 W6        30.21F                  
CUMBERLAND*    FAIR      72  66  83 CALM      30.14S                  
$$
VAZ025>031-310700-
SHENANDOAH VALLEY
  
CITY           SKY/WX    TMP DP  RH WIND       PRES   REMARKS
WINCHESTER*    FAIR      77  63  61 SW3       30.09F                  
FRONT ROYAL*   MOCLDY    73  64  73 SW5       30.09F                  
LURAY*         CLOUDY    72  63  73 CALM      30.11F                  
NEW MARKET*    CLOUDY    68  66  94 CALM      30.10F                  
STAUNTON*      CLOUDY    72  66  80 CALM      30.15F                  
WAYNESBORO*    CLOUDY    70  65  83 CALM      30.14F                  
$$
WVZ021-048>050-054>055-310700-
EASTERN WEST VIRGINIA PANHANDLE
  
CITY           SKY/WX    TMP DP  RH WIND       PRES   REMARKS
MARTINSBURG    FAIR      74  63  68 SW3       30.09S                  
PETERSBURG*    CLOUDY    68  67  98 CALM      30.13F FOG              
$$
VAZ036>039-050-310700-
CENTRAL FOOTHILLS
  
CITY           SKY/WX    TMP DP  RH WIND       PRES   REMARKS
CHARLOTTESVILL MOCLDY    74  67  78 S3        30.10F                  
CULPEPER*      CLOUDY    70  67  90 CALM      30.09F                  
ORANGE*        CLOUDY    72  68  88 CALM      30.11F                  
GORDONSVILLE*  CLOUDY    70  68  93 CALM      30.09F                  
WARRENTON*     CLOUDY    74  68  81 CALM      30.08F                  
$$
VAZ055>057-310700-
NORTH AND CENTRAL PIEDMONT
  
CITY           SKY/WX    TMP DP  RH WIND       PRES   REMARKS
FREDERICKSBRG* CLOUDY    76  66  72 S3        30.09S                  
STAFFORD*      CLOUDY    71  64  78 SE3       30.13F                  
$$
NCZ024-NYZ072-PAZ021-071-VAZ022-071-310700-
OTHER REGIONAL OBSERVATIONS
  
CITY           SKY/WX    TMP DP  RH WIND       PRES   REMARKS
NEW YORK CITY  FAIR      78  67  68 MISG      30.05F                  
PHILADELPHIA   CLOUDY    78  66  66 SW10      30.06F                  
PITTSBURGH     MOCLDY    70  65  84 W6        30.10F                  
ROANOKE        CLOUDY    72  63  73 CALM      30.15F                  
RICHMOND       CLOUDY    75  66  73 S5        30.10F                  
RALEIGH        CLOUDY    72  65  78 CALM      30.13F                  
$$
ANZ530>537-310700-
MARINE OBSERVATIONS
  
STATION/POSITION TIME  TEMP    WIND        PRES
                       AIR SEA DIR/SP/G
                 (UTC) (F)     (DEG/KT/KT) (MB)
THOMAS PT LIGHT  0600   78 79  220/ 10/ 11 1018.8
$$